Location: Tierz
(42.1336°N, 0.3549°W)
Time: 15:39:03
(UTC+00:00)

Cosmos 1315 Rocket - Pass Details

Date: 29 October 2020
Orbit: 530 x 567 km, 81.2° (Epoch: 23 November)

Event Time Altitude Azimuth Distance (km) Brightness Sun altitude
Rises 17:39:19 0° 156° (SSE) 2,673 6.2 -8.1°
Reaches altitude 10° 17:41:49 10° 140° (SE) 1,794 5.2 -8.6°
Maximum altitude 17:44:49 21° 90° (E) 1,248 4.0 -9.1°
Drops below altitude 10° 17:47:52 10° 40° (NE) 1,822 5.0 -9.7°
Sets 17:50:25 0° 25° (NNE) 2,729 6.0 -10.2°
